Temp
17 16 15 15 15 14 14 14 15 15 14 14 15 15 15 16 16 16 17 17 18 18 18 19 19 19 19 19 18 18 18 18 18 18 18 18 18 18 18 18 18 18 18 18 18 18 18 18 18 18 18 18 18 18 18 18 18 18 18 18 17 17 17 17 17 17 17 17 17
17 16 15 15 15 14 14 14 14 14 14 14 15 16 18 18 17 17 17 17 18 18 18 18 19 19 19 18 18 18 18 18 18 18 18 18 18 18 18 18 18 18 18 18 18 18 18 18 18 18 18 18 18 18 18 18 18 17 17 17 17 17 17 17 17 17 17 17 16
16 16 15 15 14 14 14 14 14 14 14 14 15 16 17 17 17 17 17 17 17 17 17 17 18 18 18 18 18 18 18 18 18 18 18 18 18 18 18 17 17 17 18 18 18 18 18 18 18 18 18 18 18 18 18 17 17 17 17 17 17 17 17 17 17 17 17 16 16
17 16 15 15 15 15 16 17 16 15 15 15 14 14 15 15 15 16 16 16 16 16 16 16 17 17 17 18 18 18 18 18 18 18 18 18 18 18 18 17 17 17 18 18 18 18 18 18 18 18 18 18 18 17 17 17 17 16 16 16 16 16 16 16 16 16 16 16 15
18 16 15 15 15 17 18 19 17 16 15 15 14 14 14 14 14 15 15 15 15 15 15 16 16 16 16 16 16 17 17 18 18 18 18 18 18 18 17 16 17 18 18 18 18 18 18 18 18 18 18 17 17 17 16 16 16 16 16 16 16 15 15 15 15 15 15 15 15
18 17 16 15 15 16 16 17 16 16 16 15 14 14 14 14 14 15 15 15 15 15 15 15 15 15 15 15 15 16 17 17 18 18 17 17 17 16 16 16 18 18 18 18 18 18 18 18 18 17 17 17 16 16 16 16 16 16 16 16 15 15 15 14 14 14 14 14 14
18 18 17 17 16 16 16 16 16 16 16 15 14 14 14 15 15 15 15 15 16 16 15 15 15 15 15 15 15 16 16 17 17 17 16 16 16 16 17 18 18 18 18 18 18 18 17 17 17 17 16 16 16 16 15 15 15 15 15 15 15 15 15 14 14 14 14 14 14
17 17 17 17 17 16 16 16 16 16 16 15 15 15 15 15 15 15 15 15 16 16 16 16 16 15 15 15 15 16 16 16 16 16 15 15 16 17 18 18 18 18 18 17 17 17 16 16 16 16 15 15 15 15 14 14 14 14 14 14 14 14 14 14 14 14 14 14 14
17 16 16 16 16 16 16 16 16 16 16 16 15 15 15 15 15 15 15 16 16 16 16 16 16 16 15 15 15 15 15 15 15 15 15 16 16 17 17 17 17 17 16 16 16 15 15 15 14 14 14 14 13 13 13 13 13 13 12 12 12 12 12 12 13 13 13 13 13
16 16 16 16 16 16 16 16 16 16 16 16 16 16 16 15 16 16 16 16 16 16 15 15 15 15 15 15 15 14 14 14 14 14 15 16 16 16 16 16 16 16 15 14 14 14 13 13 13 13 12 12 12 11 12 12 12 11 11 11 11 11 12 12 12 12 12 12 12
16 16 16 16 16 16 16 16 16 16 16 16 16 16 16 16 16 16 16 16 15 15 15 15 15 14 13 14 14 14 14 14 14 15 15 15 16 16 15 15 15 14 13 13 13 13 12 12 11 11 11 11 11 11 11 11 11 11 12 12 12 12 12 12 12 12 11 11 12
17 17 17 17 17 17 17 16 16 16 16 16 16 16 16 16 16 16 16 16 15 15 15 15 14 13 13 14 14 14 14 14 14 15 15 15 15 15 14 14 13 12 12 12 12 11 11 11 10 10 10 10 11 11 11 11 11 11 12 12 12 12 12 12 12 12 12 12 12
16 16 16 16 16 16 16 16 16 16 17 17 17 16 16 16 16 16 16 15 15 15 14 14 14 13 13 13 13 13 14 14 14 14 14 14 14 13 13 12 11 11 11 11 10 10 10 10 10 10 10 10 11 11 11 11 11 11 11 11 11 11 12 12 12 12 11 11 11
16 16 16 16 16 16 16 16 16 16 16 16 16 16 16 16 15 15 15 15 15 14 14 14 13 13 13 13 13 13 13 13 14 13 13 13 12 12 11 11 10 10 10 10 10 9 10 10 10 11 10 10 10 11 11 11 11 11 11 11 11 11 11 11 11 11 11 11 11
16 16 16 16 16 16 16 16 16 16 16 15 15 15 15 15 15 15 15 14 14 14 13 13 13 13 12 12 13 13 13 13 13 13 12 12 11 11 10 10 10 10 9 9 9 9 9 9 10 10 10 10 10 10 10 10 10 10 10 10 10 10 10 10 10 10 10 10 10
15 15 15 16 16 16 16 16 15 15 15 15 15 15 15 14 14 14 14 14 13 13 13 13 13 12 12 12 12 13 12 12 12 12 11 11 10 10 10 10 9 9 9 9 9 9 9 9 9 9 9 9 9 9 9 10 10 10 10 10 10 10 10 10 10 10 10 10 10
15 15 15 15 15 15 15 15 15 15 15 14 14 14 14 14 13 13 13 13 13 13 12 12 12 12 12 12 12 12 12 12 11 11 11 10 10 10 9 9 9 8 8 8 8 8 8 8 8 8 8 8 8 8 9 9 9 9 9 9 9 9 9 9 9 10 10 10 10
15 15 15 15 15 15 15 15 15 14 14 14 14 13 13 13 13 13 13 13 13 13 13 12 12 12 12 12 12 12 11 11 10 10 10 10 9 9 9 9 8 8 8 8 8 8 8 8 8 8 8 8 8 8 8 8 8 8 8 8 8 8 8 8 9 9 9 9 9
14 15 14 14 15 15 14 14 14 14 14 14 13 13 13 13 13 13 12 12 12 12 12 13 12 12 12 11 11 11 10 10 10 10 9 9 9 9 9 8 8 8 8 8 8 8 8 8 8 8 8 8 9 8 8 8 8 7 7 7 7 7 7 7 7 8 8 8 9
14 14 14 14 14 14 14 14 14 14 13 13 13 13 13 12 12 12 12 12 12 12 12 12 12 11 11 10 10 10 9 9 9 9 9 9 9 8 8 8 8 8 8 8 8 8 8 8 8 8 8 8 8 8 8 7 7 6 6 6 6 6 6 6 7 7 7 7 8
14 14 14 14 14 14 13 13 13 13 13 13 13 12 12 12 12 12 12 12 12 11 11 11 11 10 10 9 9 9 9 8 8 8 8 8 8 8 8 8 8 8 8 8 8 8 8 8 7 7 7 7 7 7 6 6 5 5 5 5 5 5 6 6 6 6 7 7 7
13 13 13 13 13 13 13 13 13 13 12 12 12 12 12 12 12 11 11 11 11 10 10 10 10 9 9 9 9 9 9 8 8 8 8 8 8 7 7 7 7 7 7 7 7 7 7 7 7 7 6 6 6 5 5 5 4 4 4 4 5 5 5 5 5 5 6 7 7
13 13 13 12 12 12 12 12 12 12 12 12 12 12 12 11 11 11 10 10 10 9 9 9 9 9 9 8 8 8 8 8 8 8 7 7 7 7 7 7 7 7 7 7 7 7 7 6 6 6 6 5 5 5 4 4 4 4 4 4 4 5 5 5 5 5 6 6 6
12 12 12 12 12 12 12 12 12 12 12 12 11 11 11 11 10 10 10 9 9 9 8 8 8 8 8 8 8 8 8 8 8 7 7 7 7 7 7 6 6 6 6 6 6 6 5 5 5 5 5 5 4 4 4 4 4 4 4 4 5 5 5 4 5 5 5 6 6
12 12 12 12 12 11 11 11 11 11 11 11 11 11 10 10 9 9 9 8 8 8 8 8 8 8 8 7 7 7 7 7 7 7 7 7 7 6 6 6 6 5 5 5 5 5 5 5 5 5 4 4 4 4 4 4 4 4 4 4 4 5 4 4 4 5 5 5 5
12 12 11 11 11 11 11 11 11 11 11 10 10 10 9 9 9 8 8 8 8 8 8 8 8 7 7 7 7 7 7 7 7 7 7 6 6 6 6 5 5 5 4 4 4 4 4 4 4 4 4 4 4 4 3 3 4 4 4 4 4 4 4 4 4 4 4 5 5
11 11 11 11 11 11 11 11 11 10 10 10 9 9 8 8 8 8 8 8 8 8 8 8 7 7 7 7 6 6 6 6 6 6 6 6 6 5 5 5 5 5 4 4 4 4 4 4 4 4 4 4 4 4 3 3 4 4 4 4 4 4 4 4 4 4 4 4 4
11 11 11 10 10 10 10 10 10 10 9 9 9 8 8 8 8 8 8 8 7 7 7 7 7 7 6 6 6 6 6 6 5 5 5 5 5 5 5 4 4 4 4 4 4 4 4 4 4 3 3 3 3 3 3 3 4 4 4 4 4 4 4 4 4 4 4 4 3
10 10 10 10 10 10 10 9 9 9 9 8 8 8 8 8 8 8 7 7 7 7 7 7 6 6 6 6 6 5 5 5 5 5 4 4 4 4 4 4 4 4 4 4 4 3 3 3 3 3 3 3 3 3 3 3 3 4 4 4 4 4 4 3 3 3 3 3 3
10 10 10 10 10 9 9 9 9 9 8 8 8 8 8 7 7 7 7 7 7 7 7 7 6 6 6 6 5 5 5 5 4 4 4 4 4 4 4 4 4 4 4 3 3 3 3 3 3 3 3 3 3 3 3 3 3 3 3 4 4 3 3 3 3 3 3 3 3
10 10 9 9 9 9 9 9 8 8 8 8 8 7 7 7 7 7 7 7 7 7 7 6 6 6 6 5 5 5 4 4 4 4 4 3 3 3 3 3 3 4 3 3 3 3 3 3 3 3 3 3 3 3 3 3 3 3 3 3 3 3 3 3 3 3 2 2 2
9 9 9 9 9 9 8 8 8 8 8 8 7 7 7 7 7 7 7 7 7 6 6 6 6 5 5 5 4 4 4 4 4 3 3 3 3 3 3 3 3 3 3 3 3 3 3 3 3 3 3 3 3 3 3 3 3 3 3 3 3 3 3 2 2 2 2 2 2
9 9 9 9 8 8 8 8 8 8 7 7 7 7 7 7 7 7 7 6 6 6 6 6 5 5 5 4 4 4 3 3 3 3 3 3 3 3 3 3 3 3 3 3 3 3 3 3 3 3 3 3 3 3 3 2 2 2 2 2 2 2 2 2 2 2 2 2 2
9 8 8 8 8 8 8 8 7 7 7 7 7 7 7 7 7 7 6 6 6 6 5 5 5 5 4 4 4 3 3 3 3 3 3 3 3 3 3 3 3 3 3 3 3 3 3 3 3 3 3 3 3 3 2 2 2 2 2 2 2 2 2 2 2 2 2 2 2
8 8 8 8 8 8 8 7 7 7 7 7 7 6 6 6 6 6 6 6 6 5 5 5 4 3 3 3 3 3 3 3 3 3 3 3 3 2 2 3 3 3 3 3 3 3 3 3 3 3 3 3 3 2 2 2 2 2 2 2 2 2 2 2 2 2 2 2 2
8 8 8 7 7 7 7 7 7 7 6 6 6 6 6 6 6 6 6 5 5 5 4 4 3 3 2 2 2 3 3 3 3 3 2 2 2 2 2 2 3 3 3 3 3 3 3 3 3 3 3 3 2 2 2 2 2 2 2 2 2 1 1 1 1 1 1 1 1
8 8 8 7 7 7 7 7 7 6 6 6 6 6 6 6 6 6 5 5 5 5 4 4 3 2 2 2 2 2 2 3 2 2 2 2 2 2 2 2 2 2 3 3 2 2 3 3 3 3 2 2 2 2 2 2 1 1 1 1 1 1 1 1 1 1 1 1 1
8 8 7 7 7 7 7 7 6 6 6 6 6 6 6 6 5 5 5 5 5 4 4 3 3 2 2 2 2 2 2 2 2 2 2 2 2 2 2 2 2 2 2 2 2 3 3 3 2 2 2 2 2 2 1 1 1 1 1 1 1 1 1 1 1 1 1 1 1
7 7 7 7 7 7 6 6 6 6 6 6 6 5 5 5 5 5 5 4 4 4 4 3 3 2 2 2 2 2 2 2 2 2 2 2 2 2 2 2 2 2 2 2 2 3 3 2 2 2 2 2 2 1 1 1 1 1 1 1 1 1 1 1 1 1 1 1 1
7 7 7 7 7 6 6 6 6 6 6 6 5 5 5 5 5 5 4 4 4 4 3 3 3 2 2 2 2 2 2 2 2 2 2 2 2 2 2 2 2 2 2 2 2 2 2 2 2 2 2 2 1 1 1 1 1 1 1 1 1 1 1 1 1 1 1 1 1
7 6 6 6 6 6 6 6 6 5 5 5 5 5 5 5 4 4 4 4 3 3 3 3 2 2 2 2 2 2 2 1 1 1 1 1 1 2 2 2 2 2 2 2 2 2 2 1 1 1 1 1 1 1 1 1 1 1 1 1 1 1 1 1 1 1 1 1 1
Height
788 790 793 795 796 796 797 798 798 799 801 804 805 803 802 802 802 803 803 802 803 803 803 802 802 802 802 803 804 804 805 806 807 808 808 809 810 811 812 812 813 813 814 815 815 816 816 816 817 817 817 817 818 818 818 818 819 819 819 819 819 819 820 820 820 820 820 821 821
788 791 793 795 796 797 798 799 799 801 804 805 805 805 803 802 801 802 803 803 803 803 802 801 801 801 801 802 802 803 804 805 806 806 807 809 809 810 811 811 811 812 813 813 814 815 815 815 816 816 816 816 816 816 816 817 817 817 817 818 818 818 818 818 818 818 819 819 819
787 790 792 794 796 799 800 801 800 802 804 804 804 804 803 802 801 801 802 802 803 803 802 801 800 800 800 800 801 802 803 804 805 806 806 807 808 809 810 811 811 811 811 812 813 813 814 814 814 814 814 814 815 815 815 815 815 816 816 816 816 816 816 817 817 817 817 817 817
785 788 790 792 795 796 797 797 796 797 800 800 801 801 801 800 800 799 800 801 802 803 803 802 800 799 798 798 799 800 801 802 804 805 806 806 807 807 808 809 811 811 811 811 811 812 812 812 812 813 813 813 813 813 814 814 814 814 814 815 815 815 815 815 815 816 816 816 816
782 785 788 790 790 790 790 791 790 791 793 796 798 799 799 799 797 797 798 800 801 802 802 801 800 799 798 798 798 799 800 801 802 804 805 806 806 806 807 808 808 809 809 810 810 811 811 811 811 811 811 812 812 812 812 812 812 813 813 813 813 814 814 814 814 814 814 815 815
780 783 785 786 786 785 785 785 786 788 790 792 794 796 796 797 796 796 797 798 800 801 800 799 799 798 798 798 799 799 800 800 801 803 804 805 805 806 807 807 807 807 808 808 809 809 809 810 810 810 810 810 810 811 811 811 811 811 811 812 812 812 812 813 813 813 814 814 814
780 781 782 783 785 786 786 786 786 787 788 790 792 793 794 795 795 796 796 797 797 797 797 797 797 797 798 798 799 800 800 800 801 802 803 804 806 807 806 806 806 806 806 807 807 808 808 808 808 808 808 809 809 809 809 810 810 810 810 810 811 811 811 811 812 812 813 813 813
780 781 781 782 783 784 785 786 786 787 788 789 790 791 792 793 795 796 796 795 794 794 794 795 795 796 797 798 798 799 799 799 800 801 802 804 805 806 805 804 805 805 805 806 806 806 807 807 807 807 807 807 807 808 808 808 808 809 809 809 809 809 810 810 811 811 811 811 811
779 780 781 781 782 783 784 785 786 786 787 788 790 791 792 793 794 795 794 792 792 792 793 794 794 795 796 796 797 797 797 798 800 801 802 803 804 804 803 803 804 804 804 805 805 805 806 806 806 806 806 806 807 807 807 807 808 808 808 808 808 808 809 809 809 810 810 810 810
778 779 780 781 782 783 784 785 786 786 787 788 789 790 791 791 791 791 791 790 791 791 792 793 793 794 795 795 796 796 797 799 801 802 803 803 802 802 802 802 803 803 803 804 804 804 805 805 805 806 806 806 806 806 806 807 807 807 807 807 808 808 808 808 808 808 809 809 809
777 779 780 781 782 783 784 785 785 786 786 787 787 788 788 788 788 788 788 789 789 790 791 792 793 794 795 796 796 797 798 799 800 801 801 801 801 801 801 801 802 802 803 803 803 804 804 804 805 805 805 805 806 806 806 806 807 807 807 807 807 807 807 807 807 807 808 808 808
777 778 779 780 781 782 783 783 784 784 785 785 785 786 786 786 786 787 787 788 789 789 790 791 792 794 795 796 796 797 798 798 799 799 800 800 800 800 801 801 801 802 802 802 803 803 803 804 804 804 804 805 805 805 806 806 806 806 806 806 806 806 806 807 807 807 807 807 807
776 776 778 779 780 780 781 781 782 782 783 783 784 784 784 785 785 786 786 787 788 789 790 791 792 793 795 795 796 797 797 798 798 798 799 799 799 800 800 801 801 801 801 802 802 803 803 804 804 804 804 804 805 805 805 805 805 805 806 806 806 806 806 806 806 806 806 806 806
775 776 776 777 778 779 780 780 781 781 782 782 782 783 783 784 784 785 785 786 787 788 790 791 791 792 793 794 795 796 796 797 797 798 798 798 799 799 800 800 801 801 801 801 802 802 803 803 804 804 804 804 804 804 804 804 805 805 805 805 805 805 805 805 805 805 806 806 806
774 775 776 776 777 778 779 780 780 781 781 781 782 782 783 783 784 784 785 786 787 788 789 790 791 792 793 794 795 795 796 796 796 797 797 798 799 799 800 800 800 801 801 801 801 802 802 803 803 803 803 804 804 804 804 804 804 804 804 804 804 804 804 804 805 805 805 805 805
773 774 775 776 776 777 778 779 779 780 781 781 781 782 782 783 784 785 785 786 787 788 789 790 791 791 792 793 794 794 795 795 796 796 797 798 798 799 799 799 800 800 801 801 801 801 802 802 802 803 803 803 803 803 803 803 803 803 803 803 803 803 803 804 804 804 804 804 804
773 774 775 775 776 777 777 778 779 779 780 781 781 782 782 783 784 785 786 786 787 788 789 790 790 791 792 792 793 794 794 795 796 796 797 797 798 798 799 799 799 800 800 801 801 801 801 801 802 802 802 802 802 802 802 802 802 802 802 802 802 802 803 803 803 803 803 803 803
772 773 774 775 776 776 777 778 778 779 780 780 781 782 783 783 784 785 786 786 787 788 788 789 790 791 791 792 792 793 794 794 795 796 796 797 797 798 798 799 799 799 800 800 801 801 801 801 801 801 801 801 801 801 801 801 801 801 801 801 801 801 802 802 802 802 803 803 803
772 773 774 775 775 776 776 777 778 779 780 780 781 782 783 784 784 785 786 786 787 787 788 789 789 790 791 791 792 793 793 794 795 795 796 796 797 797 798 798 798 799 799 800 800 800 801 801 801 801 801 801 801 801 801 801 800 800 800 800 800 801 801 801 801 801 802 802 802
772 772 773 774 775 776 776 777 778 779 780 780 781 782 783 784 784 785 786 786 787 787 788 788 789 790 790 791 792 792 793 794 794 795 796 796 796 797 797 798 798 798 799 799 799 800 800 800 800 800 800 800 800 800 800 800 800 800 799 800 800 800 800 800 800 801 801 801 801
771 772 773 774 775 775 776 777 778 779 779 780 781 782 783 783 784 785 785 786 786 787 787 788 789 789 790 791 791 792 793 793 794 795 795 795 796 796 797 797 797 798 798 798 799 799 799 799 799 799 799 799 799 799 799 799 799 799 799 799 799 799 799 799 800 800 800 800 801
772 772 773 774 775 775 776 777 778 778 779 780 781 782 782 783 784 784 785 786 786 787 787 788 789 789 790 791 791 792 792 793 794 794 794 795 795 796 796 796 796 797 797 797 798 798 798 798 798 798 798 798 798 798 798 798 798 798 798 798 798 799 799 799 799 799 799 800 800
772 772 773 774 775 775 776 777 777 778 779 780 781 781 782 783 783 784 785 786 786 786 787 788 789 789 790 791 791 792 792 793 793 794 794 794 795 795 795 796 796 796 796 796 796 797 797 797 797 797 797 797 797 797 797 797 797 797 797 798 798 798 798 798 798 799 799 799 799
771 772 773 774 775 775 776 776 777 778 779 780 780 781 782 782 783 784 785 785 786 786 787 788 789 789 790 791 791 791 792 792 793 793 794 794 794 794 795 795 795 795 796 796 796 796 796 796 796 796 796 796 796 796 796 797 797 797 797 797 798 798 798 798 798 798 798 798 799
771 772 773 774 774 775 776 776 777 778 778 779 780 781 781 782 783 783 784 785 786 786 787 788 788 789 790 790 791 791 792 792 792 793 793 793 794 794 794 794 794 795 795 795 795 795 795 795 796 796 796 796 796 796 796 796 796 796 797 797 797 797 797 797 797 797 798 798 798
771 772 773 773 774 775 776 776 777 777 778 779 780 781 781 782 783 783 784 785 786 786 787 787 788 789 789 790 791 791 791 792 792 792 793 793 793 793 793 794 794 794 794 794 794 794 795 795 795 795 795 795 795 795 795 795 796 796 796 796 796 796 797 797 797 797 797 797 797
771 772 772 773 774 775 775 776 777 778 778 779 780 781 781 782 783 783 784 785 785 786 787 787 788 788 789 789 790 790 791 791 791 792 792 792 792 793 793 793 793 793 793 793 794 794 794 794 794 794 794 794 794 794 795 795 795 795 796 796 796 796 796 796 796 796 797 797 797
771 771 772 773 774 775 775 776 777 777 778 779 780 781 781 782 783 783 784 785 785 786 786 787 787 788 788 789 789 790 790 791 791 791 791 792 792 792 792 792 792 792 792 793 793 793 793 793 793 793 793 793 793 794 794 794 794 795 795 795 795 795 795 796 796 796 796 796 797
771 771 772 773 774 774 775 776 776 777 778 779 780 781 781 782 783 783 784 785 785 786 786 786 787 787 788 788 789 789 790 790 790 791 791 791 791 791 791 791 791 791 791 792 792 792 792 792 793 793 793 793 793 793 793 793 794 794 794 794 794 795 795 795 795 796 796 796 796
770 771 772 772 773 774 775 776 776 777 778 779 780 781 781 782 782 783 784 784 785 785 786 786 787 787 787 788 788 789 789 790 790 790 790 790 790 790 790 791 791 791 791 791 791 791 791 792 792 792 793 792 792 792 792 793 793 793 793 794 794 794 794 795 795 795 796 796 796
770 771 771 772 773 774 775 776 776 777 778 779 780 780 781 781 782 783 783 784 785 785 786 786 786 787 787 788 788 788 789 789 789 790 790 790 790 790 790 790 790 790 790 790 791 791 791 791 791 792 792 792 791 791 792 792 792 792 793 793 793 793 794 794 795 795 796 796 796
770 770 771 772 773 773 774 776 776 777 778 779 779 780 781 781 782 782 783 784 785 785 786 786 786 786 787 787 787 788 788 788 789 789 789 789 789 789 789 789 789 789 790 790 790 790 790 791 791 791 791 791 791 791 791 792 792 792 792 792 793 793 793 794 795 795 796 796 797
769 770 771 771 772 773 774 775 776 777 778 778 779 780 780 781 781 782 783 784 784 785 785 785 786 786 786 786 787 787 787 788 788 788 789 789 789 789 788 788 788 789 789 789 789 789 790 790 790 791 791 791 791 791 791 791 791 792 792 792 793 793 793 794 795 795 796 796 797
769 769 770 771 772 773 774 775 776 776 777 778 778 779 780 781 781 782 782 783 783 784 784 785 785 786 786 786 786 787 787 787 788 788 788 788 788 788 788 788 788 788 788 788 789 789 789 789 790 790 790 790 790 790 791 791 791 791 792 792 793 793 794 794 795 795 796 796 797
768 769 770 771 772 773 774 775 775 776 777 777 778 779 779 780 781 781 781 782 783 783 784 784 785 785 786 786 786 786 787 787 787 787 787 787 787 787 787 787 787 787 788 788 788 788 788 789 789 790 789 789 789 790 790 791 791 791 792 792 793 793 794 794 795 796 796 797 797
767 768 769 770 771 772 773 774 775 776 776 776 777 778 778 779 780 781 781 782 782 783 783 783 784 784 785 785 785 786 786 786 786 787 787 787 787 787 787 787 787 787 787 787 787 788 788 788 789 789 788 788 789 790 790 791 791 791 792 792 793 793 794 794 795 796 796 797 798
767 768 769 770 771 772 772 773 774 775 775 776 776 777 778 779 779 780 781 781 781 782 782 783 783 783 784 784 785 785 785 786 786 786 786 786 786 786 786 786 787 787 787 787 787 787 788 788 788 787 787 788 789 790 790 791 791 791 792 792 793 793 794 795 795 796 796 797 798
766 767 768 769 770 771 772 773 773 774 774 775 776 777 777 778 779 780 780 780 781 781 781 782 782 783 783 784 784 784 785 785 785 786 786 786 786 786 786 786 786 786 786 787 787 787 787 787 787 787 787 788 789 789 790 790 791 791 792 792 793 793 794 795 795 796 796 797 798
766 766 767 768 769 770 771 772 772 773 774 775 776 776 777 778 778 779 779 780 780 781 781 781 781 782 782 783 784 784 784 784 785 785 785 785 786 786 786 786 786 786 786 786 787 787 787 786 786 786 787 788 788 789 790 790 791 791 791 792 793 793 794 795 795 796 796 797 798
765 766 767 768 768 769 770 771 771 772 773 774 775 776 776 777 778 778 779 779 780 780 780 781 781 781 782 783 783 783 783 784 784 784 785 785 785 786 786 786 786 786 786 786 787 787 786 786 786 786 787 788 788 789 789 790 790 791 791 792 792 793 794 794 795 796 796 797 798
765 766 766 767 768 769 770 771 771 772 773 774 775 776 776 777 778 778 778 779 779 780 780 780 781 781 782 782 782 782 783 783 783 783 784 784 785 785 785 786 786 786 786 786 787 787 786 786 786 786 787 787 788 789 789 790 790 791 791 792 792 793 793 794 795 796 796 797 798
Wind_Speed
21 18 17 19 20 22 23 23 23 20 18 18 20 22 23 22 23 23 23 23 24 25 26 27 27 27 26 26 25 25 25 25 24 24 23 23 23 23 24 23 23 22 21 20 19 18 18 18 18 18 19 20 20 21 21 22 22 22 22 22 23 23 23 23 23 23 23 23 24
21 18 17 18 19 21 22 24 23 19 15 14 13 14 18 24 25 25 24 23 23 24 26 28 28 27 27 26 25 24 24 24 24 24 24 24 24 24 23 22 22 21 20 19 18 18 18 18 19 19 20 21 21 22 22 23 23 23 23 23 23 23 23 23 23 23 23 24 24
21 17 14 14 16 19 23 25 26 25 23 22 20 21 24 27 27 26 24 23 23 23 24 25 26 27 26 26 25 24 23 23 23 23 23 23 23 22 21 20 18 18 18 18 18 18 19 19 20 20 21 22 22 22 22 23 23 23 23 23 23 23 23 23 23 23 23 23 23
21 15 11 10 13 14 16 23 28 29 29 28 25 24 24 25 25 24 24 23 22 21 21 21 23 23 23 23 23 22 22 21 21 21 21 21 21 20 19 18 18 18 18 18 19 20 20 21 21 22 22 23 23 23 23 23 23 23 22 22 22 22 22 22 22 22 22 21 21
23 18 17 20 24 24 23 27 30 31 30 28 24 20 19 19 20 22 23 22 22 21 21 20 19 19 18 17 17 18 19 19 20 20 20 19 19 19 19 19 19 19 20 21 21 22 22 23 23 23 23 23 23 23 23 24 23 23 23 23 22 21 21 20 20 20 19 19 19
25 24 24 28 32 33 32 30 28 27 27 27 24 22 20 20 20 22 23 23 23 22 20 18 17 16 15 14 14 15 16 17 18 18 17 17 17 18 19 20 20 21 22 22 23 23 23 22 22 22 22 22 22 22 22 22 23 23 23 23 22 21 20 19 18 18 17 17 18
26 26 27 29 30 30 29 26 24 24 25 25 24 23 24 23 23 23 24 24 23 21 19 18 17 15 14 14 13 13 13 13 14 15 16 17 19 20 20 20 21 21 21 22 21 21 21 20 20 20 20 20 20 20 20 20 20 20 20 20 21 20 19 18 18 18 18 18 19
25 26 27 27 27 26 25 24 23 23 24 24 24 23 23 22 22 22 22 22 20 19 18 17 15 14 13 12 11 11 12 13 14 15 17 18 20 20 20 20 19 19 19 19 19 18 18 17 17 16 16 16 16 16 16 15 15 14 15 16 18 18 18 18 18 19 19 20 21
23 24 24 24 24 23 23 24 24 23 23 22 22 22 21 21 20 20 19 18 18 17 16 15 14 13 12 10 10 12 13 14 16 17 19 20 19 19 18 18 18 18 18 17 16 15 14 13 13 12 12 12 11 11 11 10 10 11 12 13 15 16 16 16 17 18 19 20 21
21 22 22 22 22 23 23 23 23 22 21 20 20 20 20 19 19 18 18 18 17 16 14 13 12 12 11 12 13 14 16 18 19 20 20 19 18 17 16 16 16 16 15 14 12 10 10 9 9 9 9 9 9 8 8 8 9 10 11 12 13 14 15 15 15 16 16 17 19
22 22 22 22 22 22 22 22 21 20 20 19 19 19 18 18 18 19 19 19 17 15 14 14 14 14 16 17 17 18 19 19 20 19 18 17 16 16 16 15 14 13 11 9 7 7 7 7 7 7 7 7 7 8 8 9 10 11 12 12 13 14 15 15 15 15 15 15 16
23 23 23 23 23 22 22 22 21 20 20 20 19 19 18 19 19 20 20 20 18 17 17 19 19 18 18 19 19 19 19 19 18 17 16 15 15 15 14 12 10 8 6 5 5 5 5 6 6 7 7 7 7 8 9 9 10 11 12 13 13 14 14 15 15 15 15 15 15
24 24 24 23 23 23 22 21 21 20 20 20 19 19 19 19 20 20 21 20 20 20 20 20 19 18 17 17 18 18 18 17 16 15 14 13 12 11 9 8 6 5 4 4 4 5 5 5 5 6 6 7 7 8 8 8 9 10 10 11 11 12 12 13 13 13 14 14 14
24 24 24 23 23 22 21 21 20 19 19 19 19 19 19 19 19 19 18 17 17 17 18 18 17 15 15 15 15 16 15 15 14 13 11 10 8 7 6 5 4 4 4 4 5 5 5 5 5 6 6 7 7 7 7 7 7 7 8 8 8 9 9 10 11 11 12 12 13
23 23 23 22 22 21 20 19 19 18 18 18 18 18 18 18 17 16 15 14 13 14 15 16 15 14 13 13 13 13 13 12 11 10 8 7 6 6 5 5 5 5 5 5 6 6 6 6 6 6 7 8 8 8 8 7 8 8 8 7 8 8 8 9 9 10 10 11 12
23 22 22 21 21 20 19 18 18 18 18 18 18 18 17 17 16 15 14 13 13 13 13 13 13 13 12 12 11 11 10 9 9 8 7 7 6 6 6 6 5 5 6 6 6 6 7 7 8 8 9 9 10 10 10 10 10 11 10 10 10 10 10 10 9 9 9 10 10
22 22 21 21 20 19 19 18 18 18 18 18 18 17 17 16 15 14 13 12 12 12 12 12 12 12 12 11 10 10 9 8 8 8 7 7 7 6 6 6 6 6 6 7 7 7 7 8 9 9 10 11 11 12 13 13 13 14 14 14 14 13 13 12 11 11 10 10 10
22 22 21 20 20 19 19 19 18 18 18 18 17 17 16 15 14 13 13 12 11 11 11 11 12 12 11 10 10 9 9 8 8 8 7 7 7 6 6 6 6 6 7 8 8 9 9 10 11 11 12 12 12 13 14 14 15 15 15 15 15 15 15 14 13 12 12 11 11
22 22 21 21 20 19 19 19 18 18 18 18 17 16 15 14 13 13 12 11 11 11 11 11 11 11 10 10 9 9 9 9 8 8 7 7 6 7 7 7 7 7 8 9 10 11 11 12 12 13 13 13 13 14 14 14 15 15 15 15 15 15 14 14 13 13 13 12 12
22 22 22 21 20 20 19 18 18 18 18 17 16 15 14 14 13 12 12 12 11 11 10 10 10 10 10 10 10 9 9 9 8 8 7 7 6 7 7 7 8 8 9 10 11 12 12 13 13 13 13 13 13 13 13 14 14 14 14 14 13 13 12 11 11 11 12 13 13
23 22 22 21 20 19 19 18 18 17 17 16 16 15 14 14 13 13 12 12 11 10 10 10 9 10 10 11 10 10 9 9 8 8 7 7 7 8 8 9 9 10 11 11 12 13 13 13 13 13 13 13 14 14 14 14 14 14 13 13 12 10 9 9 10 11 12 13 13
22 22 21 20 20 19 18 18 17 17 17 16 16 15 14 14 13 13 12 12 11 10 10 10 9 9 10 10 10 9 9 9 9 8 8 8 9 9 10 11 11 12 12 13 13 14 14 14 13 13 13 14 15 15 15 14 14 13 13 12 11 9 9 9 10 11 13 14 14
22 21 21 20 19 19 18 18 17 17 17 16 16 15 15 14 14 13 12 11 11 10 10 10 10 10 9 9 9 9 10 10 10 10 10 10 11 11 12 12 12 13 13 13 14 14 14 14 14 14 14 15 16 16 15 14 13 13 12 11 10 10 10 11 11 12 13 14 13
21 21 20 19 19 18 18 18 18 17 17 17 16 16 15 14 14 13 12 11 11 11 11 11 11 10 10 10 10 10 11 11 11 11 12 12 12 13 13 13 13 12 13 14 14 15 16 16 16 15 15 15 15 15 14 13 12 12 12 11 11 11 11 12 13 13 14 14 13
21 20 20 19 19 19 18 18 18 18 18 17 17 16 15 15 14 13 12 12 12 11 11 11 11 10 10 11 11 11 11 11 12 12 12 13 13 13 13 13 12 12 13 14 15 16 16 16 16 15 14 14 13 13 12 12 11 12 12 12 12 12 12 13 14 14 14 14 13
20 20 20 19 19 19 19 19 18 18 18 18 17 17 16 15 14 13 13 12 12 12 11 11 10 10 11 11 11 11 11 11 12 12 13 13 14 14 14 14 14 14 15 15 15 15 15 14 14 13 13 12 13 12 12 12 12 12 12 13 13 13 14 15 15 15 14 14 13
20 20 20 20 19 19 19 19 19 18 18 18 18 17 17 16 15 14 13 13 12 12 11 11 11 11 11 11 11 11 12 12 12 13 14 14 15 15 16 17 17 18 17 17 15 14 13 13 13 13 13 12 12 12 12 12 13 13 14 14 14 15 15 15 15 15 14 14 13
21 21 20 20 20 20 19 19 19 19 19 18 18 18 17 16 15 15 14 13 12 12 12 12 11 11 11 11 11 12 12 13 13 14 14 15 16 17 17 18 18 18 18 17 15 14 13 12 12 13 13 13 13 12 12 13 14 14 15 16 16 16 16 15 15 15 14 13 13
22 22 21 21 21 20 20 20 19 19 19 19 18 18 17 17 16 15 14 13 13 13 13 12 12 11 12 12 12 12 12 12 13 13 14 14 15 15 15 15 15 14 14 13 12 11 11 11 12 13 13 14 13 13 13 14 15 15 16 16 16 16 16 16 15 15 14 13 13
23 22 22 22 22 21 21 20 20 20 19 19 19 18 17 17 16 15 14 14 14 13 12 12 12 12 12 12 12 12 12 12 12 12 12 13 13 13 12 11 11 10 9 10 10 10 10 11 12 13 13 14 14 14 14 15 15 16 17 17 17 16 16 16 15 14 14 13 13
24 23 23 23 22 22 22 21 20 20 20 19 19 18 18 17 16 15 15 14 13 12 11 11 12 12 12 12 12 12 11 11 11 11 11 12 12 12 11 10 9 9 9 9 10 10 11 12 12 13 13 14 15 15 15 15 16 17 17 17 17 16 16 15 15 14 14 14 13
24 24 24 24 23 23 22 21 21 21 20 20 19 18 17 17 16 15 14 13 12 11 11 11 12 12 12 12 12 12 11 11 11 11 11 11 12 12 11 10 9 9 9 10 10 11 11 12 12 12 13 14 15 15 15 15 16 16 17 17 16 16 16 15 15 14 14 14 14
25 25 25 24 24 23 23 22 22 21 21 20 19 18 17 16 15 14 13 12 12 11 11 11 12 12 12 12 12 12 11 11 11 12 12 12 12 12 12 11 10 9 9 10 10 11 11 12 12 12 13 14 15 15 15 15 16 16 16 16 15 15 15 15 14 14 14 14 14
26 26 25 25 25 24 24 23 22 22 21 20 19 18 17 16 15 14 13 12 11 11 10 10 11 11 11 11 11 11 12 12 12 12 12 12 12 12 12 11 10 10 10 10 11 11 11 12 11 12 13 15 15 15 15 15 15 15 15 15 15 15 14 14 14 13 13 14 14
27 26 26 25 25 25 24 23 23 22 21 21 20 18 17 16 15 14 13 12 11 10 10 10 10 10 10 10 10 11 12 13 13 13 13 12 12 12 12 11 10 9 9 10 11 11 11 11 11 12 14 15 16 15 14 14 15 15 15 14 14 14 14 14 13 13 13 14 15
27 27 26 26 25 25 25 24 23 23 22 21 20 19 17 16 15 14 13 12 11 11 11 11 11 10 10 11 11 12 12 13 13 12 12 12 12 12 11 11 9 9 9 10 11 11 11 11 12 13 15 16 15 14 14 14 14 14 14 14 14 14 14 14 13 13 13 14 15
27 27 26 26 26 25 25 24 24 23 22 21 20 19 17 16 15 14 13 12 12 12 11 11 11 11 11 11 12 12 12 12 12 12 12 12 12 11 11 10 9 8 9 10 10 10 10 11 13 15 16 15 15 14 14 14 14 14 14 14 14 14 14 14 14 13 14 14 15
28 27 27 26 26 26 25 25 24 23 22 21 20 18 17 16 15 14 14 13 13 12 12 11 11 10 10 11 11 11 12 12 11 11 11 11 11 11 10 9 8 8 8 9 10 10 11 12 14 15 15 14 13 13 14 14 14 14 14 14 14 15 14 14 14 14 14 14 14
28 27 27 26 26 26 25 25 24 23 22 21 19 18 17 16 15 15 14 14 13 12 12 11 10 10 10 10 11 11 12 12 11 11 11 11 11 10 9 9 8 8 8 9 9 10 11 13 14 14 13 12 12 13 14 15 15 15 15 15 15 15 15 15 14 14 13 13 13
27 27 26 26 25 25 25 24 24 22 21 19 18 17 17 16 15 15 14 14 13 12 11 10 9 9 10 10 12 12 12 12 11 11 11 11 11 10 10 9 8 8 8 9 9 10 12 13 13 13 12 11 11 12 14 15 15 15 15 15 15 16 16 15 14 14 13 13 12
26 26 25 25 24 24 24 23 22 20 19 18 17 16 15 15 15 15 15 14 13 12 11 10 10 10 11 12 12 13 12 12 11 11 11 11 11 11 11 10 9 9 9 9 10 11 11 11 11 11 11 11 11 13 15 16 16 16 16 16 16 16 16 16 15 15 14 13 13
Wind_Direction
221 235 251 261 266 268 268 267 262 260 258 256 252 251 249 244 241 239 237 233 231 228 224 221 219 217 215 212 211 210 209 209 208 209 211 213 214 216 216 217 218 218 220 222 225 229 233 237 242 246 249 252 254 256 257 257 257 256 255 254 253 252 252 252 253 253 253 253 252
230 244 259 267 268 267 264 262 258 249 233 217 218 233 245 247 244 241 239 236 232 226 220 216 213 210 206 204 203 202 202 203 204 205 208 210 213 215 216 218 219 221 224 227 232 237 243 247 252 255 258 261 262 263 263 263 261 259 257 256 254 253 253 252 252 253 253 253 252
227 237 250 260 262 261 258 253 241 229 215 202 203 217 233 241 241 238 235 232 226 219 213 207 204 201 198 196 197 197 199 201 203 205 208 211 214 216 219 224 229 232 234 239 245 250 255 258 261 264 266 267 267 266 265 264 262 260 257 256 255 254 253 252 252 252 252 252 252
213 215 220 225 230 237 245 246 234 222 213 212 221 233 240 239 235 230 226 222 217 212 207 202 197 194 193 194 195 197 200 203 206 210 213 216 220 223 228 235 242 245 248 252 257 261 264 265 267 268 268 267 267 265 263 262 260 258 256 255 255 255 255 254 254 254 254 254 253
201 203 214 221 220 218 221 227 229 226 222 223 233 242 243 236 227 220 215 212 210 209 207 204 199 196 196 197 199 201 204 208 213 217 221 225 230 235 242 249 253 255 257 260 263 265 266 266 266 265 264 263 262 261 260 259 258 257 256 255 255 255 256 256 256 256 256 255 254
207 209 216 221 221 221 222 223 226 229 229 228 229 228 226 221 215 209 206 206 207 208 208 208 206 206 208 210 211 210 210 214 219 224 229 237 246 252 255 255 256 258 261 263 264 264 263 263 262 260 259 257 257 256 256 257 257 257 257 257 256 256 255 252 252 251 250 248 246
217 216 216 217 222 227 230 231 230 229 227 223 219 216 213 210 206 203 202 203 202 202 204 206 209 212 216 219 220 217 217 223 231 239 246 254 258 259 258 258 259 261 262 262 262 261 260 258 256 254 253 253 253 253 254 255 257 258 259 258 258 256 253 248 245 242 240 239 239
226 222 220 220 223 226 228 228 225 220 216 212 209 207 206 205 203 202 200 199 195 193 194 197 200 204 209 214 219 226 235 245 255 261 262 261 258 257 258 259 260 261 260 259 258 256 254 252 250 248 248 248 249 250 250 252 254 258 261 263 262 260 257 253 246 241 237 237 237
224 220 219 218 218 218 217 216 213 209 205 203 202 202 202 202 202 200 197 193 188 187 188 190 195 201 209 220 236 248 256 261 265 265 262 257 255 256 258 258 258 257 255 253 251 249 248 247 245 244 244 245 246 246 246 247 254 260 265 267 269 269 267 263 257 250 244 242 241
213 210 209 208 207 206 205 204 203 202 200 199 198 198 199 201 199 197 194 191 188 188 192 200 211 226 243 254 261 264 265 263 260 256 253 253 254 255 255 254 252 251 249 246 244 243 244 246 248 250 252 252 252 249 247 247 254 260 264 266 270 272 273 273 269 264 258 253 252
204 202 201 199 198 198 198 197 198 200 201 201 200 200 201 201 201 201 201 200 200 206 217 229 242 255 264 267 266 262 258 253 250 248 248 251 252 251 248 246 245 243 240 237 235 240 247 253 257 259 262 265 262 257 251 248 251 256 259 261 264 266 268 271 272 271 268 265 263
200 199 198 198 197 197 197 198 199 201 203 204 206 206 207 209 212 214 215 217 221 231 242 250 255 258 257 255 251 246 242 241 241 243 246 247 247 244 242 239 237 235 230 219 223 233 244 253 256 259 261 264 261 257 252 250 251 254 257 258 259 260 262 264 267 268 268 267 266
200 199 198 198 199 200 201 202 202 203 204 206 209 210 211 215 220 223 227 231 236 241 245 249 248 244 238 231 228 228 230 234 237 240 241 240 239 237 235 232 231 229 220 205 217 224 230 237 243 247 251 255 254 251 249 249 251 254 257 260 261 261 262 264 265 266 265 264 263
200 199 198 199 200 203 206 207 208 207 206 207 209 210 211 213 218 223 227 231 232 231 229 228 225 219 214 212 216 221 227 231 233 234 233 233 233 232 231 229 229 227 222 213 217 217 217 222 227 234 240 244 247 248 248 247 250 255 259 263 264 265 266 268 267 266 266 264 262
198 198 199 200 201 204 207 209 210 209 208 206 206 208 208 208 210 212 215 215 211 207 205 204 203 203 205 210 216 221 225 227 228 228 228 229 230 232 233 234 231 228 224 218 217 217 219 224 229 233 237 241 245 250 253 253 254 258 262 266 267 268 268 269 268 267 266 265 263
196 196 198 200 202 204 206 207 208 207 206 204 204 204 203 201 200 199 199 198 195 194 193 196 200 204 209 214 219 222 223 223 224 226 229 230 231 231 233 235 233 228 222 219 221 225 230 233 239 241 242 244 247 250 253 255 255 257 261 264 265 266 267 267 267 267 266 265 264
194 195 197 200 202 203 204 205 205 204 202 201 200 199 198 195 193 193 193 194 195 195 197 201 209 213 215 218 221 222 222 222 223 225 227 229 230 230 232 234 235 230 224 223 229 236 243 249 251 252 251 250 251 252 254 254 254 255 256 258 259 260 261 262 264 264 264 264 263
192 194 196 199 201 202 203 204 203 202 200 198 196 195 195 194 192 192 195 199 202 203 205 210 216 219 219 218 220 221 221 219 219 221 222 225 229 232 235 239 240 235 230 232 237 243 249 255 260 262 263 263 262 262 262 262 260 258 257 256 256 256 256 256 256 258 259 259 258
191 194 196 198 200 202 203 203 202 200 198 196 195 194 193 195 196 197 199 202 206 209 211 214 216 216 214 213 214 214 214 215 217 219 223 227 232 235 239 243 246 243 239 239 244 248 253 257 262 267 269 271 271 271 271 271 269 267 264 261 260 258 255 252 251 252 254 255 253
193 194 196 198 200 201 202 201 200 198 196 195 194 193 194 196 199 201 201 202 204 207 211 213 211 207 204 204 205 206 207 210 216 222 230 238 242 244 246 248 250 250 248 249 252 255 260 264 268 271 273 274 274 274 274 274 274 272 269 266 264 262 257 251 248 249 251 251 249
194 195 197 199 199 199 199 198 197 196 194 194 194 195 196 197 199 200 201 201 201 201 202 205 204 200 197 198 200 202 205 210 217 228 240 252 256 255 254 254 255 256 257 258 260 262 265 269 271 273 275 276 276 277 277 277 276 273 270 267 265 264 260 252 247 247 249 249 246
194 195 196 197 197 197 196 195 195 194 194 194 195 196 196 196 196 195 196 196 194 193 193 195 196 197 197 199 201 204 209 215 221 232 244 255 259 258 256 254 255 256 258 260 262 263 266 268 271 273 275 277 278 280 280 280 276 272 268 265 263 261 256 249 246 245 247 247 245
195 195 195 195 195 194 194 193 193 193 193 194 194 195 194 193 191 190 189 189 188 187 187 189 192 195 199 202 207 210 214 219 225 233 241 248 251 252 251 251 251 252 255 258 261 263 265 268 271 274 277 279 280 281 282 280 275 269 265 262 259 255 250 246 243 243 245 245 244
196 195 195 194 194 193 193 193 192 193 193 193 193 193 192 190 187 185 184 185 185 186 187 188 191 195 200 205 210 215 220 223 228 233 238 241 243 243 245 246 248 251 255 259 263 266 269 272 275 277 278 278 279 280 280 276 270 264 260 257 254 250 247 244 242 242 243 244 245
197 196 195 194 194 193 194 193 193 193 193 192 191 190 189 187 185 184 183 184 186 189 190 192 195 199 204 209 213 219 223 228 233 237 240 242 242 242 243 245 249 255 260 265 268 272 275 278 278 278 276 275 275 275 273 267 260 255 252 250 249 247 247 245 244 243 243 243 245
198 197 196 195 194 194 194 194 194 193 192 190 188 187 186 186 185 185 185 186 190 193 197 201 205 209 213 216 219 224 228 233 237 241 244 246 247 248 250 254 259 265 270 274 277 280 280 278 277 275 272 269 268 267 264 258 251 247 245 245 245 245 246 246 245 244 244 244 243
198 197 196 196 195 195 195 195 194 192 190 188 187 186 185 186 186 188 190 192 195 199 204 209 215 219 223 226 229 232 235 239 242 244 247 249 252 255 259 262 266 271 275 279 283 282 277 269 266 264 262 261 260 259 256 251 245 242 240 241 242 242 242 242 242 242 241 240 238
198 197 196 196 195 195 195 195 194 192 190 188 187 187 187 188 190 192 195 198 202 205 208 213 219 225 231 235 237 239 242 245 247 249 252 255 258 262 265 268 271 274 277 279 281 278 269 259 251 248 248 251 252 252 250 247 243 240 238 238 239 240 240 240 239 237 234 231 226
199 198 197 196 195 195 196 195 193 192 191 190 189 189 190 191 194 197 200 203 207 209 212 215 221 229 235 238 242 244 246 248 251 254 258 261 265 268 271 273 275 276 276 275 273 267 258 247 239 236 239 244 246 246 244 242 241 239 238 237 238 239 239 238 235 231 226 219 212
200 199 197 197 196 196 196 196 195 194 193 192 192 193 194 196 198 201 204 207 210 213 218 222 228 232 236 240 244 247 248 250 253 256 260 264 268 271 274 276 276 273 267 261 257 253 246 239 234 234 238 241 243 243 242 240 239 238 237 237 238 238 237 234 229 222 216 209 200
200 200 199 198 197 197 197 197 196 195 195 195 195 197 198 200 202 204 207 210 214 219 224 229 233 237 240 244 247 248 249 251 253 256 259 263 267 270 273 273 271 265 257 252 249 245 241 236 233 234 237 239 241 242 242 240 239 238 237 236 236 234 231 226 220 213 207 201 194
201 200 199 199 199 199 199 198 197 197 197 198 199 200 202 203 205 208 211 214 218 222 227 231 235 238 241 244 246 247 249 250 252 255 259 263 266 269 270 269 264 259 253 249 247 242 238 233 232 233 234 234 236 239 241 240 239 238 237 235 233 229 224 219 213 208 203 198 192
201 200 200 200 200 200 200 199 199 199 200 201 202 204 205 206 208 211 213 217 221 226 230 234 236 238 240 241 242 244 246 248 252 256 260 263 265 266 266 263 258 253 249 246 244 240 234 231 231 231 231 230 234 238 240 239 238 236 234 231 227 222 217 212 209 206 202 197 193
201 201 201 201 201 201 200 200 200 201 201 203 204 206 207 209 210 212 215 218 223 228 234 238 241 243 245 244 243 244 246 249 253 257 260 262 263 262 261 258 254 250 246 243 240 235 231 229 230 229 227 227 232 235 237 235 234 231 228 223 218 213 209 207 206 205 201 196 191
202 201 201 202 202 202 201 201 201 201 203 204 205 207 209 211 213 216 218 221 225 229 233 236 241 242 242 241 242 244 247 250 254 257 259 259 258 256 254 252 251 249 246 242 237 231 228 228 228 223 221 224 229 232 232 230 227 224 220 215 209 204 202 202 202 201 198 193 189
204 203 202 202 203 203 202 201 202 202 203 205 206 207 209 212 216 219 222 224 228 230 232 233 235 235 234 234 236 240 245 249 253 256 256 254 252 249 248 248 249 249 246 240 232 227 226 227 220 216 216 222 227 228 227 224 221 218 213 208 203 199 198 198 197 195 192 190 187
205 205 204 203 203 203 203 203 203 203 204 206 208 209 211 213 216 219 221 224 229 233 235 236 233 231 230 231 234 238 242 247 250 252 251 248 245 244 244 246 249 249 244 236 228 225 225 219 210 209 214 220 224 224 221 218 215 211 207 203 200 198 197 196 194 191 189 188 187
207 206 205 204 204 204 204 204 204 205 206 208 210 212 214 216 218 219 221 225 230 234 238 239 237 234 233 234 236 240 242 244 246 247 246 243 241 240 243 248 252 250 241 231 226 224 218 207 203 207 215 220 222 221 218 214 210 207 203 200 198 197 195 194 192 189 188 187 188
207 207 206 205 205 205 204 204 205 207 208 210 211 213 216 219 220 222 224 228 233 239 242 241 238 237 237 237 239 242 243 242 241 240 240 240 238 239 242 248 252 249 239 229 226 217 207 200 202 209 217 222 224 221 217 212 208 204 202 199 197 195 194 192 191 189 188 188 189
207 206 206 206 205 204 204 204 206 209 211 212 214 216 218 220 223 225 227 230 236 241 246 246 244 241 237 236 239 243 245 243 238 234 234 235 236 238 241 244 248 245 237 229 219 207 198 198 204 212 220 225 226 222 217 212 208 204 201 199 196 193 191 190 189 188 188 188 189
206 205 205 205 205 205 204 205 207 209 212 215 218 221 224 226 228 229 230 232 235 239 244 247 246 242 237 236 239 244 247 245 238 231 228 229 232 236 238 240 241 238 233 224 211 200 195 199 208 218 226 228 227 222 216 211 206 203 201 199 196 193 190 188 187 187 188 188 188